M0JGD Weather Reports


Display with metric or nautical units.
time (UTC)temp
F
wind
direction
speed
MPH
gust
MPH
rain 1hr
in
rain 24hr
in
rain mn
in
humidity
%
barometer
mb
20260507091551 57 0 0.0 2.0 0.00 0.00 0.00 68 1013.8
20260507090054 54 0 0.0 2.0 0.00 0.00 0.00 76 1014.0
20260507084553 52 0 0.0 0.0 0.00 0.00 0.00 77 1014.1
20260507083053 51 0 0.0 0.0 0.00 0.00 0.00 82 1013.9
20260507081553 50 0 0.0 2.0 0.00 0.00 0.00 86 1013.8
20260507080113 49 0 0.0 0.0 0.00 0.00 0.00 88 1013.9
20260507074552 48 0 0.0 2.0 0.00 0.00 0.00 90 1013.8
20260507073112 47 0 0.0 1.0 0.00 0.00 0.00 92 1013.8
20260507071609 45 0 0.0 0.0 0.00 0.00 0.00 92 1013.8
20260507070056 43 0 0.0 0.0 0.00 0.00 0.00 92 1013.6
20260507064554 42 0 0.0 0.0 0.00 0.00 0.00 91 1013.5
20260507063057 42 0 0.0 0.0 0.00 0.00 0.00 91 1013.5
20260507061559 41 0 0.0 0.0 0.00 0.00 0.00 91 1013.5
20260507060054 41 0 0.0 0.0 0.00 0.00 0.00 91 1013.5
20260507054552 40 0 0.0 0.0 0.00 0.00 0.00 90 1013.4
20260507053121 40 0 0.0 0.0 0.00 0.00 0.00 90 1013.3
20260507051601 40 0 0.0 0.0 0.00 0.00 0.00 89 1013.2
20260507050108 40 0 0.0 0.0 0.00 0.00 0.00 89 1013.1
20260507044559 40 0 0.0 0.0 0.00 0.00 0.00 89 1013.3
20260507043057 41 0 0.0 0.0 0.00 0.00 0.00 89 1013.1
20260507041555 40 0 0.0 0.0 0.00 0.00 0.00 88 1013.0
20260507034556 41 0 0.0 0.0 0.00 0.00 0.00 88 1013.1
20260507033055 42 0 0.0 1.0 0.00 0.00 0.00 88 1013.0
20260507031556 42 0 0.0 0.0 0.00 0.00 0.00 87 1012.9
20260507030057 42 0 0.0 0.0 0.00 0.00 0.00 87 1012.9
20260507024604 43 0 0.0 0.0 0.00 0.00 0.00 86 1012.9
20260507023056 43 0 0.0 0.0 0.00 0.00 0.00 86 1013.0
20260507021557 43 0 0.0 0.0 0.00 0.00 0.00 86 1012.8
20260507020109 44 0 0.0 0.0 0.00 0.00 0.00 85 1012.6
20260507014612 45 0 0.0 0.0 0.00 0.00 0.00 84 1012.5
20260507013056 45 0 0.0 0.0 0.00 0.00 0.00 84 1012.5
20260507011610 46 0 0.0 0.0 0.00 0.00 0.00 84 1012.6
20260507010113 47 0 0.0 0.0 0.00 0.00 0.00 84 1012.6
20260507004615 47 0 0.0 0.0 0.00 0.00 0.00 82 1012.7
20260507003102 47 0 0.0 0.0 0.00 0.00 0.00 81 1012.5
20260507001604 48 0 0.0 0.0 0.00 0.00 0.00 80 1012.8
20260507000056 48 0 0.0 0.0 0.00 0.00 0.00 79 1012.7
20260506234557 48 0 0.0 0.0 0.00 0.00 0.00 78 1012.7
20260506233058 49 0 0.0 0.0 0.00 0.00 0.00 77 1012.6
20260506231553 49 0 0.0 0.0 0.00 0.00 0.00 76 1012.6
20260506230104 49 0 0.0 0.0 0.00 0.00 0.00 76 1012.5
20260506224552 49 0 0.0 0.0 0.00 0.00 0.00 76 1012.7
20260506223053 50 0 0.0 0.0 0.00 0.00 0.00 76 1012.7
20260506221557 50 0 0.0 0.0 0.00 0.00 0.00 75 1012.4
20260506220057 50 0 0.0 0.0 0.00 0.00 0.00 74 1012.4
20260506214603 50 0 0.0 0.0 0.00 0.00 0.00 74 1012.4
20260506213055 50 0 0.0 0.0 0.00 0.00 0.00 73 1012.5
20260506211600 51 0 0.0 0.0 0.00 0.00 0.00 72 1012.3
20260506204554 51 0 0.0 0.0 0.00 0.00 0.00 71 1012.2
20260506203053 51 0 0.0 0.0 0.00 0.00 0.00 70 1012.2
20260506201556 52 0 0.0 0.0 0.00 0.00 0.00 69 1012.0
20260506200104 52 0 0.0 0.0 0.00 0.00 0.00 68 1011.8
20260506194605 52 0 0.0 0.0 0.00 0.00 0.00 67 1011.5
20260506193055 52 0 0.0 2.0 0.00 0.00 0.00 66 1011.5
20260506191606 53 0 0.0 1.0 0.00 0.00 0.00 66 1011.3
20260506190054 53 0 0.0 1.0 0.00 0.00 0.00 65 1011.2
20260506184557 53 0 0.0 2.0 0.00 0.00 0.00 64 1011.0
20260506183106 53 0 0.0 2.0 0.00 0.00 0.00 63 1010.9
20260506181602 54 0 0.0 1.0 0.00 0.00 0.00 62 1010.9
20260506180113 54 0 0.0 0.0 0.00 0.00 0.00 62 1010.8
20260506174623 54 0 0.0 0.0 0.00 0.00 0.00 62 1010.5
20260506173135 55 0 0.0 2.0 0.00 0.00 0.00 61 1010.7
20260506171556 55 0 0.0 2.0 0.00 0.00 0.00 60 1010.4
20260506170057 56 0 0.0 0.0 0.00 0.00 0.00 58 1010.3
20260506164553 56 0 0.0 0.0 0.00 0.00 0.00 58 1010.4
20260506163100 56 0 0.0 2.0 0.00 0.00 0.00 57 1010.4
20260506161557 56 0 0.0 2.0 0.00 0.00 0.00 58 1010.3
20260506160100 56 0 0.0 2.0 0.00 0.00 0.00 56 1010.4
20260506154558 57 157 0.0 2.0 0.00 0.00 0.00 55 1010.5
20260506153057 57 88 1.0 3.0 0.00 0.00 0.00 54 1010.5
20260506151555 57 55 1.0 5.0 0.00 0.00 0.00 52 1010.3
20260506150059 58 0 0.0 2.0 0.00 0.00 0.00 48 1010.2
20260506144606 60 48 1.0 7.0 0.00 0.00 0.00 47 1010.3
20260506143052 61 54 1.0 3.0 0.00 0.00 0.00 44 1010.1
20260506141556 61 86 1.0 3.0 0.00 0.00 0.00 44 1010.2
20260506140055 60 84 1.0 7.0 0.00 0.00 0.00 48 1010.0
20260506134605 58 68 3.0 9.0 0.00 0.00 0.00 48 1010.2
20260506133101 59 91 1.0 4.0 0.00 0.00 0.00 46 1010.3
20260506131556 60 89 1.0 4.0 0.00 0.00 0.00 46 1010.3
20260506130054 59 88 1.0 5.0 0.00 0.00 0.00 46 1010.3
20260506124552 59 0 1.0 12.0 0.00 0.00 0.00 47 1010.3
20260506123054 58 111 2.0 8.0 0.00 0.00 0.00 49 1010.4
20260506121554 57 59 1.0 6.0 0.00 0.00 0.00 50 1010.3
20260506120111 57 355 1.0 10.0 0.00 0.00 0.00 50 1010.3
20260506114554 57 73 1.0 8.0 0.00 0.00 0.00 50 1010.3
20260506113100 57 0 1.0 5.0 0.00 0.00 0.00 51 1010.3
20260506111555 58 74 0.0 8.0 0.00 0.00 0.00 52 1010.4
20260506110057 58 0 1.0 9.0 0.00 0.00 0.00 53 1010.4
20260506104558 57 52 0.0 3.0 0.00 0.00 0.00 55 1010.6
20260506103055 56 94 1.0 4.0 0.00 0.00 0.00 54 1010.5
20260506101553 56 0 0.0 9.0 0.00 0.00 0.00 58 1010.6
20260506094608 55 0 0.0 3.0 0.00 0.00 0.00 58 1010.5
20260506093053 53 85 1.0 6.0 0.00 0.00 0.00 62 1010.6